This is the latest recevied weather packets stored in our database for station/object WD7OO. If no packets are shown the sender has not sent any weather packets the latest 10 day(s).
| Time | Temp. | Humidity | Pressure | Rain* | Wind** | Luminosity | Snow |
|---|---|---|---|---|---|---|---|
| 1777937186 | 22.22° C | 60% | 1000.3 hPa | 0 mm | - | 17 W/m² | - |
| 1777936882 | 22.22° C | 61% | 1000.4 hPa | 0 mm | - | 16 W/m² | - |
| 1777936579 | 22.22° C | 60% | 1000.9 hPa | 0 mm | - | 12 W/m² | - |
| 1777936275 | 22.22° C | 61% | 1000.5 hPa | 0 mm | - | 20 W/m² | - |
| 1777935971 | 22.22° C | 58% | 1000.6 hPa | 0 mm | - | 29 W/m² | - |
| 1777935670 | 22.78° C | 58% | 1000.8 hPa | 0 mm | - | 52 W/m² | - |
| 1777935368 | 22.78° C | 58% | 1000.5 hPa | 0 mm | - | 69 W/m² | - |
| 1777935064 | 22.78° C | 57% | 1000.4 hPa | 0 mm | - | 75 W/m² | - |
| 1777934761 | 22.78° C | 57% | 1000.6 hPa | 0 mm | - | 72 W/m² | - |
| 1777934458 | 22.78° C | 56% | 1000.5 hPa | 0 mm | - | 44 W/m² | - |
| 1777934155 | 23.33° C | 55% | 1000.7 hPa | 0 mm | - | 60 W/m² | - |
| 1777933850 | 23.33° C | 54% | 1000.6 hPa | 0 mm | - | 104 W/m² | - |
| 1777933547 | 23.33° C | 53% | 1000.6 hPa | 0 mm | - | 193 W/m² | - |
| 1777933244 | 23.33° C | 51% | 1000.5 hPa | 0 mm | - | 122 W/m² | - |
| 1777932942 | 23.89° C | 50% | 1000.4 hPa | 0 mm | - | 96 W/m² | - |
| 1777932638 | 24.44° C | 48% | 1000.4 hPa | 0 mm | - | 83 W/m² | - |
| 1777932335 | 25° C | 48% | 1000.3 hPa | 0 mm | - | 316 W/m² | - |
| 1777932032 | 23.89° C | 49% | 1000.4 hPa | 0 mm | - | 366 W/m² | - |
| 1777931728 | 24.44° C | 48% | 1000.4 hPa | 0 mm | - | 114 W/m² | - |
| 1777931426 | 25° C | 47% | 1000.5 hPa | 0 mm | - | 326 W/m² | - |
| 1777931122 | 25° C | 46% | 1000.5 hPa | 0 mm | - | 141 W/m² | - |
| 1777930818 | 24.44° C | 46% | 1000.4 hPa | 0 mm | - | 317 W/m² | - |
| 1777930515 | 24.44° C | 46% | 1000.5 hPa | 0 mm | - | 134 W/m² | - |
| 1777930212 | 23.89° C | 47% | 1000.4 hPa | 0 mm | - | 182 W/m² | - |
| 1777929908 | 23.89° C | 47% | 1000.4 hPa | 0 mm | - | 80 W/m² | - |
* Rain latest hour (hover to see other rain measurements)
** Current wind speed in m/s (hover to see current wind gust speed)